ESSAESSV

Guest
Details From ESSA - Stockholm Arlanda
To ESSV - Visby
Flight Number -
Tags Generated
Created
Modified
Stats Distance 119 nm / 221 km
Max Altitude 0 ft / 0 m
Waypoints 2
Social Downloads 16
Likes 0
Share VATSIM

Download

Looking for another format? Having issues loading an existing format? Contact us
Advertisement - Login to hide

Notes

Generated

Route

ESSA ESSV

ID Type Via Altitude Latitude Longitude Leg Dist Tot Dist Heading (true) Name
O ESSA APT - 0 ft / 0 m 59.62640˚ 17.95074˚ - 0 nm - -
O ESSV APT - 0 ft / 0 m 57.65099˚ 18.32965˚ 119 nm 119 nm 174° / 174° -

Altitude Profile

ESSA

Details ICAO ESSA (ARN)
Name Stockholm Arlanda
Region Sweden
Timezone Europe/Stockholm (UTC+2.0)
Stats Elevation 137 ft / 42 m (AMSL)
Location 59.650140° 17.943628°
Runways 3
Magnetic Variation 5.987° E

METAR

ESSA 300420Z 09002KT 1800 R01L/P1500N R19R/P1500N R01R/0550N R19L/P1500N BCFG VV003 M04/M04 Q1022 R01L/710151 R08/710164 R01R/710162 NOSIG

Decode

TAF

TAF ESSA 292330Z 3000/3024 04004KT CAVOK PROB40 3000/3006 BKN004 BECMG 3008/3010 19010KT BECMG 3016/3018 3000 -RASN BKN006 TEMPO 3018/3024 1000 SNRA BKN004

Decode

Departure Runways

ID Width Length Bearing (true) Bearing (mag) Surface Threshold Offset Overrun Length
01L 148 ft / 45 m 10,812 ft / 3,296 m 10.35° 4.36° Concrete 0 ft / 0 m 0 ft / 0 m
01R 148 ft / 45 m 8,188 ft / 2,496 m 10.38° 4.39° Asphalt 0 ft / 0 m 0 ft / 0 m
08 148 ft / 45 m 8,178 ft / 2,493 m 75.83° 69.84° Concrete 0 ft / 0 m 0 ft / 0 m
19L 148 ft / 45 m 8,188 ft / 2,496 m 190.39° 184.40° Asphalt 0 ft / 0 m 0 ft / 0 m
19R 148 ft / 45 m 10,812 ft / 3,296 m 190.36° 184.37° Concrete 0 ft / 0 m 0 ft / 0 m
26 148 ft / 45 m 8,178 ft / 2,493 m 255.87° 249.88° Concrete 0 ft / 0 m 0 ft / 0 m

ESSV

Details ICAO ESSV (VBY)
Name Visby
Region Sweden
Timezone Europe/Stockholm (UTC+2.0)
Stats Elevation 164 ft / 50 m (AMSL)
Location 57.656405° 18.342448°
Runways 2
Magnetic Variation 5.806° E

METAR

ESSV 300420Z 20003KT 9999 FEW020 M04/M05 Q1024 R21/09//95

Decode

TAF

Not found

Destination Runways

ID Width Length Bearing (true) Bearing (mag) Surface Threshold Offset Overrun Length
03 148 ft / 45 m 6,552 ft / 1,997 m 20.95° 15.14° Asphalt 0 ft / 0 m 0 ft / 0 m
10 131 ft / 40 m 3,599 ft / 1,097 m 101.41° 95.60° Grass 0 ft / 0 m 0 ft / 0 m
21 148 ft / 45 m 6,552 ft / 1,997 m 200.96° 195.15° Asphalt 0 ft / 0 m 0 ft / 0 m
28 131 ft / 40 m 3,599 ft / 1,097 m 281.43° 275.62° Grass 0 ft / 0 m 0 ft / 0 m

Approach Navaids

Runway Type Ident Frequency Range Bearing (true) Bearing (mag) Slope Elevation
21 Localiser SV 110.30 MHz 18 nm / 33 km 200.95° 195.15° - 164 ft / 50 m (AMSL)
21 Glidescope SV 110.30 MHz 10 nm / 19 km 200.95° 195.15° 3.00° 164 ft / 50 m (AMSL)

Popular Alternatives